sat.trackr.live / text

‹ back to catalog

STARLINK-3631

NORAD 51790 · 2022-017Y

PAYLOAD ACTIVE UNKNOWN

§ Identity

Operator
Country
US
Launch date
2022-02-25
Launch site
AFWTR
Launch vehicle
Mass (kg)
RCS (m²)

Purposes: comms

External: N2YO · Heavens-Above · Gunter

§ Orbital elements

Epoch: 2026-05-25T00:24:11.113920Z

Period
95.44 min
Inclination
53.2157°
Eccentricity
0.0001667
Mean motion
15.08849347 rev/d
Perigee alt
538.6 km
Apogee alt
540.9 km
Semi-major
6,917.9 km
B*
9.8544e-5
RAAN
6.4745°
Arg perigee
98.3393°
Mean anomaly
261.7789°
Rev number
23,549

§ Raw data

STARLINK-36311 51790U 22017Y   26145.01679530  .00001281  00000+0  98544-4 0  99982 51790  53.2157   6.4745 0001667  98.3393 261.7789 15.08849347235490

JSON: /api/v1/satellites/51790 · /tle

For live sub-satellite position, see the globe view (requires WebGL).

§ Visibility from observer

Set your observer location to see the next 7 days of passes ≥ 10°. The values pass through the URL so the page stays shareable.

No JS? Fill the form by hand. The geolocation button needs JavaScript.